EW9606 Weather Reports


time (UTC)temp
C
wind
direction
speed
KPH
gust
KPH
rain 1hr
cm
rain 24hr
cm
rain mn
cm
humidity
%
barometer
mb
20260507030607 15 270 0.0 0.0 0.00 0.00 0.00 58 1014.2
20260507030107 15 270 0.0 1.6 0.00 0.00 0.00 58 1014.2
20260507025606 15 248 1.6 1.6 0.00 0.00 0.00 58 1014.3
20260507025106 15 270 1.6 1.6 0.00 0.00 0.00 58 1014.3
20260507024607 15 270 1.6 1.6 0.00 0.00 0.00 58 1014.5
20260507024106 15 270 1.6 1.6 0.00 0.00 0.00 58 1014.4
20260507023606 15 270 1.6 3.2 0.00 0.00 0.00 58 1014.3
20260507023106 15 262 1.6 1.6 0.00 0.00 0.00 59 1014.0
20260507022606 15 248 0.0 1.6 0.00 0.00 0.00 59 1014.0
20260507022106 15 248 0.0 1.6 0.00 0.00 0.00 59 1014.1
20260507021607 15 248 1.6 1.6 0.00 0.00 0.00 59 1014.1
20260507021106 15 248 1.6 1.6 0.00 0.00 0.00 59 1014.0
20260507020606 15 248 0.0 1.6 0.00 0.00 0.00 59 1014.1
20260507020106 15 248 0.0 3.2 0.00 0.00 0.00 59 1014.0
20260507015607 15 248 1.6 3.2 0.00 0.00 0.00 60 1014.4
20260507015106 15 270 0.0 1.6 0.00 0.00 0.00 61 1014.1
20260507014606 15 270 1.6 1.6 0.00 0.00 0.00 61 1014.2
20260507014106 15 270 1.6 1.6 0.00 0.00 0.00 61 1014.2
20260507013607 15 270 0.0 1.6 0.00 0.00 0.00 61 1014.2
20260507012107 15 270 1.6 1.6 0.00 0.00 0.00 61 1014.4
20260507011606 15 270 0.0 1.6 0.00 0.00 0.00 61 1014.2
20260507010607 15 270 1.6 1.6 0.00 0.00 0.00 61 1014.2
20260507010106 15 270 0.0 1.6 0.00 0.00 0.00 62 1014.3
20260507005606 15 270 0.0 1.6 0.00 0.00 0.00 62 1014.3
20260507004606 15 270 0.0 1.6 0.00 0.00 0.00 62 1014.2
20260507004106 16 270 0.0 1.6 0.00 0.00 0.00 62 1014.3
20260507003606 16 270 0.0 1.6 0.00 0.00 0.00 63 1014.2
20260507003107 16 270 1.6 1.6 0.00 0.00 0.00 63 1014.3
20260507002606 16 270 0.0 0.0 0.00 0.00 0.00 64 1014.3
20260507002106 16 270 0.0 0.0 0.00 0.00 0.00 64 1014.4
20260507001606 16 270 0.0 0.0 0.00 0.00 0.00 64 1014.4
20260507001107 16 270 0.0 0.0 0.00 0.00 0.00 64 1014.4
20260507000106 16 270 1.6 1.6 0.00 0.00 0.00 64 1014.4
20260506235606 16 248 1.6 3.2 0.00 0.00 0.00 64 1014.2
20260506235106 16 240 1.6 3.2 0.00 0.00 0.00 65 1014.4
20260506234607 16 248 1.6 3.2 0.00 0.00 0.00 65 1014.3
20260506234107 16 270 0.0 3.2 0.00 0.00 0.00 65 1014.2
20260506233606 16 262 1.6 3.2 0.00 0.00 0.00 65 1014.5
20260506233106 16 225 1.6 3.2 0.00 0.00 0.00 65 1014.3
20260506232606 16 225 1.6 4.8 0.00 0.00 0.00 65 1014.3
20260506232107 16 248 1.6 3.2 0.00 0.00 0.00 65 1014.3
20260506231606 16 248 0.0 1.6 0.00 0.00 0.00 66 1014.5
20260506231106 16 248 0.0 0.0 0.00 0.00 0.00 66 1014.3
20260506230606 16 248 0.0 1.6 0.00 0.00 0.00 66 1014.4
20260506225607 16 248 1.6 3.2 0.00 0.00 0.00 66 1014.5
20260506225106 16 248 1.6 1.6 0.00 0.00 0.00 66 1014.5
20260506224606 16 248 1.6 3.2 0.00 0.00 0.00 67 1014.5
20260506223607 16 248 0.0 1.6 0.00 0.00 0.00 67 1014.5
20260506223106 16 248 0.0 1.6 0.00 0.00 0.00 67 1014.7
20260506222606 17 248 1.6 3.2 0.00 0.00 0.00 67 1014.6
20260506222106 17 225 1.6 3.2 0.00 0.00 0.00 68 1014.5
20260506221606 17 225 1.6 3.2 0.00 0.00 0.00 68 1014.6
20260506221106 17 225 1.6 3.2 0.00 0.00 0.00 69 1014.6
20260506220606 17 225 0.0 3.2 0.00 0.00 0.00 69 1014.7
20260506220107 17 202 1.6 3.2 0.00 0.00 0.00 69 1014.6
20260506215606 17 217 1.6 1.6 0.00 0.00 0.00 69 1014.7
20260506214606 17 217 1.6 1.6 0.00 0.00 0.00 70 1014.4
20260506214107 17 233 1.6 1.6 0.00 0.00 0.00 69 1014.6
20260506213606 17 225 1.6 1.6 0.00 0.00 0.00 69 1014.6
20260506213106 17 225 0.0 0.0 0.00 0.00 0.00 69 1014.6
20260506212606 17 225 0.0 0.0 0.00 0.00 0.00 70 1014.6
20260506212106 17 225 0.0 1.6 0.00 0.00 0.00 69 1014.6
20260506211606 17 217 0.0 0.0 0.00 0.00 0.00 69 1014.6
20260506211106 17 202 0.0 1.6 0.00 0.00 0.00 69 1014.5
20260506210606 17 135 1.6 3.2 0.00 0.00 0.00 69 1014.6
20260506205106 18 112 1.6 4.8 0.00 0.00 0.00 69 1014.5
20260506204606 17 135 1.6 3.2 0.00 0.00 0.00 69 1014.5
20260506204106 17 219 0.0 1.6 0.00 0.00 0.00 69 1014.5
20260506203607 18 231 0.0 1.6 0.00 0.00 0.00 69 1014.6
20260506203106 18 180 0.0 1.6 0.00 0.00 0.00 69 1014.6
20260506202106 18 126 1.6 4.8 0.00 0.00 0.00 68 1014.3
20260506201106 18 254 4.8 9.7 0.00 0.00 0.00 67 1014.3
20260506200606 18 270 4.8 9.7 0.00 0.00 0.00 68 1014.3
20260506200106 18 281 4.8 9.7 0.00 0.00 0.00 68 1014.1
20260506195606 18 248 4.8 9.7 0.00 0.00 0.00 68 1014.1
20260506194106 18 235 4.8 9.7 0.00 0.00 0.00 68 1014.0
20260506193606 18 250 3.2 9.7 0.00 0.00 0.00 68 1013.9
20260506193106 18 275 4.8 11.3 0.00 0.00 0.00 68 1013.9
20260506192606 18 225 3.2 9.7 0.00 0.00 0.00 69 1013.9
20260506192106 18 225 4.8 9.7 0.00 0.00 0.00 69 1013.9
20260506191607 18 186 3.2 9.7 0.00 0.00 0.00 69 1014.0
20260506191107 18 225 4.8 9.7 0.00 0.00 0.00 69 1013.8
20260506190606 18 239 1.6 9.7 0.00 0.00 0.00 69 1013.9
20260506190106 18 248 4.8 9.7 0.00 0.00 0.00 69 1013.8
20260506185606 18 189 4.8 9.7 0.00 0.00 0.00 69 1013.7
20260506185107 18 136 1.6 4.8 0.00 0.00 0.00 69 1013.6
20260506184606 18 135 1.6 8.0 0.00 0.00 0.00 69 1013.6
20260506184106 18 264 3.2 9.7 0.00 0.00 0.00 68 1013.4
20260506183607 19 254 4.8 14.5 0.00 0.00 0.00 68 1013.3
20260506183106 19 225 4.8 14.5 0.00 0.00 0.00 68 1013.3
20260506182607 18 240 3.2 8.0 0.00 0.00 0.00 69 1013.2
20260506181606 18 208 3.2 9.7 0.00 0.00 0.00 68 1013.2
20260506181106 18 205 3.2 9.7 0.00 0.00 0.00 68 1013.1
20260506180606 18 225 3.2 4.8 0.00 0.00 0.00 68 1013.2
20260506175606 19 225 4.8 9.7 0.00 0.00 0.00 68 1013.0
20260506175106 19 224 1.6 9.7 0.00 0.00 0.00 69 1012.9
20260506174607 19 255 4.8 14.5 0.00 0.00 0.00 68 1012.9
20260506174107 19 247 4.8 16.1 0.00 0.00 0.00 68 1012.9
20260506173106 19 241 8.0 19.3 0.00 0.00 0.00 68 1012.7
20260506172606 19 251 8.0 14.5 0.00 0.00 0.00 68 1012.7
20260506172106 20 283 4.8 16.1 0.00 0.00 0.00 68 1012.7
20260506171606 20 261 4.8 14.5 0.00 0.00 0.00 68 1012.7
20260506171107 20 255 4.8 20.9 0.00 0.00 0.00 68 1012.7
20260506170606 20 225 6.4 20.9 0.00 0.00 0.00 68 1012.8
20260506170107 20 213 9.7 20.9 0.00 0.00 0.00 68 1012.5
20260506165607 20 263 8.0 12.9 0.00 0.00 0.00 68 1012.7
20260506164607 20 244 9.7 20.9 0.00 0.00 0.00 68 1012.5
20260506164107 20 270 11.3 24.1 0.00 0.00 0.00 68 1012.5
20260506163607 20 248 9.7 20.9 0.00 0.00 0.00 67 1012.6
20260506163106 20 248 8.0 20.9 0.00 0.00 0.00 67 1012.4
20260506162606 20 256 9.7 19.3 0.00 0.00 0.00 67 1012.4
20260506162107 20 273 8.0 22.5 0.00 0.00 0.00 67 1012.4
20260506161606 20 245 9.7 24.1 0.00 0.00 0.00 67 1012.3
20260506160606 20 231 11.3 24.1 0.00 0.00 0.00 67 1012.1
20260506155607 21 249 12.9 24.1 0.00 0.00 0.00 67 1012.2
20260506155106 21 247 11.3 24.1 0.00 0.00 0.00 67 1012.1
20260506154607 21 281 11.3 24.1 0.00 0.00 0.00 67 1011.9
20260506154107 21 248 11.3 24.1 0.00 0.00 0.00 67 1012.0
20260506153606 21 270 14.5 24.1 0.00 0.00 0.00 66 1012.0
20260506153106 21 209 9.7 22.5 0.00 0.00 0.00 66 1012.0
20260506152606 21 246 11.3 22.5 0.00 0.00 0.00 67 1011.9
20260506152106 21 292 11.3 25.7 0.00 0.00 0.00 67 1011.8
20260506151606 21 248 11.3 20.9 0.00 0.00 0.00 66 1011.9
20260506151106 21 266 9.7 20.9 0.00 0.00 0.00 66 1011.9
20260506150607 21 265 9.7 24.1 0.00 0.00 0.00 66 1011.9
20260506150106 21 291 9.7 24.1 0.00 0.00 0.00 67 1011.8
20260506145606 21 260 11.3 24.1 0.00 0.00 0.00 67 1011.9
20260506145107 21 218 16.1 25.7 0.00 0.00 0.00 67 1011.9
20260506144607 21 254 12.9 24.1 0.00 0.00 0.00 66 1011.9
20260506144107 21 257 14.5 24.1 0.00 0.00 0.00 66 1011.8
20260506143607 21 263 9.7 25.7 0.00 0.00 0.00 67 1012.0
20260506143107 21 266 12.9 25.7 0.00 0.00 0.00 66 1011.9
20260506142607 21 248 11.3 33.8 0.00 0.00 0.00 65 1011.9
20260506142106 21 249 12.9 25.7 0.00 0.00 0.00 66 1011.9
20260506141607 21 264 9.7 25.7 0.00 0.00 0.00 66 1012.1
20260506141106 22 283 9.7 22.5 0.00 0.00 0.00 65 1011.8
20260506140606 22 281 11.3 27.4 0.00 0.00 0.00 64 1011.8
20260506140107 22 244 11.3 25.7 0.00 0.00 0.00 65 1011.8
20260506135106 22 239 9.7 22.5 0.00 0.00 0.00 65 1011.9
20260506134606 21 262 11.3 22.5 0.00 0.00 0.00 66 1011.9
20260506134106 22 273 11.3 20.9 0.00 0.00 0.00 66 1011.8
20260506133606 22 285 14.5 25.7 0.00 0.00 0.00 65 1011.9
20260506133106 21 252 12.9 24.1 0.00 0.00 0.00 66 1011.8
20260506132606 21 258 11.3 29.0 0.00 0.00 0.00 66 1011.9
20260506132106 21 215 11.3 25.7 0.00 0.00 0.00 66 1011.9
20260506131606 21 239 14.5 27.4 0.00 0.00 0.00 65 1012.1
20260506131106 21 276 11.3 22.5 0.00 0.00 0.00 66 1012.1
20260506130606 22 248 11.3 25.7 0.00 0.00 0.00 65 1011.7
20260506130106 22 265 9.7 25.7 0.00 0.00 0.00 66 1011.8
20260506125606 22 297 8.0 22.5 0.00 0.00 0.00 65 1011.8
20260506125107 22 267 8.0 25.7 0.00 0.00 0.00 66 1011.9
20260506124607 21 216 11.3 25.7 0.00 0.00 0.00 66 1012.0
20260506124107 21 225 11.3 27.4 0.00 0.00 0.00 66 1011.9
20260506123608 21 278 14.5 24.1 0.00 0.00 0.00 66 1012.1
20260506123107 21 266 11.3 25.7 0.00 0.00 0.00 66 1012.1
20260506122106 22 256 12.9 20.9 0.00 0.00 0.00 64 1012.2
20260506121606 22 292 9.7 24.1 0.00 0.00 0.00 61 1012.1
20260506121107 22 240 9.7 19.3 0.00 0.00 0.00 60 1012.2
20260506120607 22 234 9.7 20.9 0.00 0.00 0.00 60 1012.2
20260506120106 22 263 9.7 20.9 0.00 0.00 0.00 59 1012.2
20260506115607 22 245 8.0 19.3 0.00 0.00 0.00 59 1012.3
20260506115107 22 277 9.7 20.9 0.00 0.00 0.00 59 1012.3
20260506114106 22 302 8.0 16.1 0.00 0.00 0.00 60 1012.4
20260506113606 22 294 6.4 20.9 0.00 0.00 0.00 61 1012.5
20260506113107 22 307 8.0 14.5 0.00 0.00 0.00 58 1012.2
20260506112606 22 260 8.0 16.1 0.00 0.00 0.00 60 1012.3
20260506112106 22 292 9.7 19.3 0.00 0.00 0.00 59 1012.5
20260506111607 22 298 4.8 20.9 0.00 0.00 0.00 58 1012.5
20260506110606 22 255 8.0 14.5 0.00 0.00 0.00 57 1012.5
20260506105606 22 270 11.3 22.5 0.00 0.00 0.00 56 1012.6
20260506105107 22 266 9.7 19.3 0.00 0.00 0.00 57 1012.3
20260506104606 22 270 8.0 19.3 0.00 0.00 0.00 57 1012.4
20260506104106 22 281 9.7 19.3 0.00 0.00 0.00 58 1012.2
20260506103606 22 276 8.0 19.3 0.00 0.00 0.00 58 1012.4
20260506103106 21 278 11.3 19.3 0.00 0.00 0.00 58 1012.5
20260506101606 21 253 8.0 14.5 0.00 0.00 0.00 59 1012.5
20260506100107 21 270 8.0 22.5 0.00 0.00 0.00 59 1012.5
20260506095606 21 248 8.0 19.3 0.00 0.00 0.00 60 1012.6
20260506095106 22 238 4.8 20.9 0.00 0.00 0.00 60 1012.5
20260506094607 21 278 9.7 19.3 0.00 0.00 0.00 60 1012.6
20260506094106 21 306 8.0 12.9 0.00 0.00 0.00 60 1012.6
20260506093106 21 270 8.0 20.9 0.00 0.00 0.00 62 1012.8
20260506092606 21 287 8.0 14.5 0.00 0.00 0.00 58 1012.9
20260506092106 22 277 4.8 12.9 0.00 0.00 0.00 60 1012.9
20260506091606 21 270 4.8 12.9 0.00 0.00 0.00 60 1012.9
20260506090106 21 248 8.0 14.5 0.00 0.00 0.00 58 1013.1
20260506085606 21 225 8.0 14.5 0.00 0.00 0.00 58 1012.9
20260506085107 22 225 3.2 11.3 0.00 0.00 0.00 57 1012.8
20260506083607 21 292 4.8 16.1 0.00 0.00 0.00 58 1012.9
20260506083106 21 292 8.0 19.3 0.00 0.00 0.00 58 1012.9
20260506082606 22 287 3.2 11.3 0.00 0.00 0.00 58 1012.9
20260506082106 21 0 3.2 16.1 0.00 0.00 0.00 59 1013.0
20260506081106 21 315 4.8 14.5 0.00 0.00 0.00 59 1012.9
20260506080606 21 327 4.8 12.9 0.00 0.00 0.00 61 1012.8
20260506080106 21 321 3.2 12.9 0.00 0.00 0.00 60 1012.8
20260506072607 20 319 4.8 20.9 0.00 0.00 0.00 60 1012.6
20260506072107 20 270 6.4 22.5 0.00 0.00 0.00 60 1012.4
20260506071106 20 15 8.0 14.5 0.00 0.00 0.00 60 1012.6
20260506070606 20 315 3.2 19.3 0.00 0.00 0.00 61 1012.4
20260506070106 20 321 8.0 19.3 0.00 0.00 0.00 59 1012.5
20260506062106 19 293 8.0 16.1 0.00 0.00 0.00 65 1012.3
20260506061606 19 278 8.0 22.5 0.00 0.00 0.00 64 1012.4
20260506061107 18 302 11.3 20.9 0.00 0.00 0.00 64 1012.2
20260506060606 18 279 11.3 19.3 0.00 0.00 0.00 65 1012.2
20260506060106 18 290 11.3 25.7 0.00 0.00 0.00 66 1012.3
20260506051106 17 278 11.3 24.1 0.00 0.00 0.00 67 1012.1
20260506050106 17 296 9.7 19.3 0.00 0.00 0.00 67 1012.1
20260506045106 17 270 11.3 22.5 0.00 0.00 0.00 67 1012.0
20260506044607 17 270 9.7 19.3 0.00 0.00 0.00 66 1011.9
20260506044106 17 347 9.7 22.5 0.00 0.00 0.00 66 1011.8
20260506043606 17 292 9.7 20.9 0.00 0.00 0.00 66 1011.7
20260506043107 17 329 9.7 24.1 0.00 0.00 0.00 66 1011.8
20260506041606 17 300 12.9 20.9 0.00 0.00 0.00 66 1011.6
20260506040607 17 300 9.7 20.9 0.00 0.00 0.00 66 1011.5
20260506040106 17 286 9.7 20.9 0.00 0.00 0.00 65 1011.5
20260506035606 17 282 4.8 14.5 0.00 0.00 0.00 66 1011.3
20260506035107 17 315 9.7 19.3 0.00 0.00 0.00 66 1011.4
20260506034606 16 292 8.0 16.1 0.00 0.00 0.00 66 1011.6
20260506034108 16 270 6.4 14.5 0.00 0.00 0.00 66 1011.3
20260506033107 16 290 4.8 11.3 0.00 0.00 0.00 66 1011.3
20260506032606 16 270 4.8 14.5 0.00 0.00 0.00 66 1011.2
20260506032107 16 285 8.0 14.5 0.00 0.00 0.00 66 1011.1
20260506031606 16 293 8.0 12.9 0.00 0.00 0.00 66 1011.2